SCP
0 0 0 0 0 0 0 0 0 0 0 0 0 0 0 0 0 0 0 0 0 1 1 1 1 1 1 0 1 1 1 1 1 2 2 3 2 2 2 2 2 2 2 1 1 1 1 1 0
0 0 0 0 0 0 0 0 0 0 0 0 0 0 0 0 0 0 0 0 0 1 1 1 1 1 1 1 1 1 1 1 1 2 3 3 2 2 2 2 2 2 2 1 1 1 1 0 0
0 0 0 0 0 0 0 0 0 0 0 0 0 0 0 0 1 1 0 0 1 1 2 2 1 1 1 1 1 2 2 1 1 3 3 3 2 2 2 2 2 2 2 1 1 1 1 0 0
0 0 0 0 0 0 0 0 0 0 0 0 0 0 0 1 1 1 1 1 1 1 2 2 2 2 1 1 1 2 1 1 1 2 3 2 2 1 1 1 1 1 1 1 1 1 1 1 1
0 0 0 0 0 0 0 0 0 0 0 0 0 0 1 1 1 1 1 1 1 1 2 2 2 2 2 1 1 1 1 1 1 2 2 2 2 1 1 1 1 1 1 1 1 1 1 1 1
0 0 0 0 0 0 0 0 0 0 0 0 0 0 1 1 1 1 1 1 1 2 2 2 2 2 1 1 1 1 1 1 2 2 2 2 2 2 1 1 1 1 1 1 1 1 1 1 1
0 0 0 0 0 0 0 0 0 0 0 0 0 0 1 1 1 1 1 1 1 2 2 2 2 1 1 1 1 1 1 1 2 2 2 2 2 2 1 1 1 1 1 1 1 1 1 1 0
0 0 0 0 0 0 0 0 0 0 0 0 1 1 1 1 1 1 1 1 1 2 2 2 2 1 1 1 1 1 1 1 1 1 1 1 1 1 1 1 1 1 1 0 0 0 0 1 1
0 0 0 0 0 0 0 0 0 1 1 1 1 1 1 1 1 1 1 1 1 1 2 2 2 2 1 1 1 1 1 1 1 1 1 1 1 1 1 0 0 0 0 0 0 0 0 0 0
0 0 0 0 1 1 0 0 0 1 1 0 1 1 1 1 1 1 1 1 1 1 1 2 2 2 1 1 1 1 1 1 1 1 1 1 1 0 0 0 0 0 0 0 0 0 0 0 0
0 0 0 1 1 0 1 1 0 0 0 0 1 1 2 1 1 1 1 1 1 1 1 2 2 2 1 1 1 1 1 1 1 1 1 1 1 0 0 0 0 0 0 0 0 0 0 0 0
0 0 0 0 0 0 1 1 1 0 0 0 1 1 2 2 1 1 1 1 1 1 1 2 2 2 1 1 1 1 1 1 1 1 1 1 0 0 0 0 0 0 0 0 0 0 0 0 0
0 0 0 0 0 0 1 1 1 1 0 1 1 1 1 1 1 1 1 1 1 1 1 1 1 1 1 1 1 1 1 1 1 1 1 1 0 0 0 0 1 0 0 0 0 0 0 1 1
0 0 0 0 0 0 0 1 1 1 1 1 1 1 1 1 1 1 1 1 1 1 2 2 1 1 1 1 1 1 1 1 1 1 1 1 0 0 0 0 0 0 0 0 0 0 0 1 1
0 0 0 0 0 0 0 1 1 1 1 1 1 1 1 1 1 1 1 1 1 2 2 2 1 1 1 1 1 1 1 1 1 1 1 0 0 0 0 0 0 0 0 0 0 0 0 1 1
0 0 0 0 0 0 0 0 0 1 1 1 1 1 1 1 1 1 1 1 1 2 2 2 1 1 1 1 1 1 1 1 1 1 1 0 0 0 0 0 0 0 0 1 0 0 0 0 1
0 0 0 0 0 0 0 0 0 0 0 1 1 1 1 1 1 1 1 1 1 1 2 1 1 1 1 1 1 1 1 1 1 1 1 0 0 0 0 0 0 0 0 0 1 1 1 1 0
0 0 0 0 0 0 0 0 0 0 1 1 1 1 1 1 1 1 1 1 1 1 1 1 1 1 1 1 1 1 1 1 1 1 1 0 0 0 0 0 0 0 0 0 0 1 1 1 0
0 0 0 0 0 0 0 0 0 0 1 1 1 1 1 1 1 1 1 1 1 1 1 1 1 1 1 1 1 1 1 1 1 1 1 1 0 0 0 0 0 0 0 0 0 0 1 0 0
0 0 0 0 0 0 0 0 0 0 1 1 1 1 1 1 1 1 1 1 1 1 1 1 1 1 1 1 1 1 1 1 1 1 1 1 0 0 0 0 0 0 0 0 0 0 0 0 0
0 0 0 0 0 0 0 0 0 0 0 1 1 1 1 1 1 1 1 1 1 1 1 1 1 1 1 1 1 1 1 1 1 1 1 0 0 0 0 0 0 0 0 0 0 0 0 0 0
0 0 0 0 0 0 0 0 0 0 0 0 1 1 1 1 1 1 1 1 1 1 1 1 1 1 1 1 1 1 1 1 1 1 1 0 0 0 0 0 0 0 0 0 0 0 0 0 0
0 0 0 0 0 0 0 0 0 0 0 0 1 1 1 1 1 1 1 1 1 1 1 1 1 1 1 1 1 1 1 1 1 1 0 0 0 0 0 0 0 0 0 0 0 0 0 0 0
0 0 0 0 0 0 0 0 0 0 0 0 0 1 1 1 1 1 1 1 1 1 1 1 1 1 1 1 1 1 1 1 1 1 0 0 0 0 0 0 0 0 0 0 0 0 0 0 0
0 0 0 0 0 0 0 0 0 0 0 0 0 0 0 1 1 1 1 1 1 1 1 1 1 1 1 1 1 1 1 1 1 1 0 0 0 0 0 0 0 0 0 0 0 0 0 0 0
0 0 0 0 0 0 0 0 0 0 0 1 1 1 0 0 1 1 1 2 1 1 1 1 1 1 1 1 1 1 1 1 1 1 1 0 0 0 0 0 0 0 0 0 0 0 0 0 0
0 0 0 0 0 0 0 0 1 1 1 1 1 1 0 0 0 1 1 1 1 1 1 1 1 1 1 1 1 1 1 1 1 1 1 0 0 0 0 0 0 0 0 0 0 0 0 0 0
0 0 0 1 1 1 1 1 1 1 1 1 1 1 1 0 0 1 1 1 1 1 1 1 1 1 1 1 1 1 1 1 1 1 1 0 0 0 0 0 0 0 0 0 0 0 0 0 0
0 0 0 1 1 1 1 1 1 1 1 1 1 1 1 0 0 1 1 1 1 1 1 1 1 1 1 1 1 1 1 1 1 0 0 0 0 0 0 0 0 0 0 0 0 0 0 0 0
0 0 1 1 1 1 1 1 1 1 1 1 1 1 1 1 1 1 1 1 1 1 1 1 1 1 1 1 1 1 1 1 1 0 0 0 0 0 0 0 0 0 0 0 0 0 0 0 0
Wind_Speed
3 2 2 3 3 2 5 5 4 5 5 5 5 4 5 6 6 6 5 3 3 3 3 4 5 6 6 7 7 8 9 10 10 10 10 9 9 9 9 9 9 10 10 10 10 9 10 10 10
1 2 3 3 2 4 6 5 6 6 6 5 5 4 5 7 6 6 4 3 3 4 4 5 6 6 7 8 9 9 10 11 11 11 10 10 10 10 10 10 10 10 10 10 10 10 10 10 10
2 2 2 1 1 3 6 6 7 8 6 3 4 4 5 6 5 5 5 4 4 5 4 7 6 7 9 9 9 10 11 11 11 11 12 12 12 12 11 11 11 11 10 10 10 10 10 10 10
2 3 2 1 5 5 5 7 7 7 5 3 4 6 6 5 4 5 7 5 6 6 6 8 7 9 9 9 10 11 11 12 12 11 11 12 12 12 12 12 12 12 11 11 10 10 10 10 10
2 2 3 4 5 4 4 4 4 4 4 4 4 7 7 6 6 7 7 6 6 6 6 8 8 9 10 10 11 11 11 12 12 11 11 11 12 12 12 12 13 13 12 12 11 10 10 10 10
2 2 3 4 5 4 4 3 3 4 5 5 5 6 7 6 6 6 6 6 6 6 6 7 8 9 10 10 11 11 11 11 12 12 12 12 12 12 12 13 13 13 12 12 11 10 10 10 10
1 1 3 5 5 5 4 3 3 4 5 4 3 5 7 7 6 6 6 6 6 6 6 5 6 8 9 10 11 12 12 12 12 12 12 12 12 12 12 13 13 12 11 11 11 11 10 10 9
1 2 4 4 4 4 4 4 3 2 4 4 1 3 6 8 7 7 7 6 6 6 5 5 6 6 7 8 11 11 11 12 12 12 12 11 11 11 11 12 12 12 11 11 11 11 10 9 9
3 3 3 3 3 4 4 4 4 2 5 4 3 4 6 11 9 8 7 6 6 5 5 4 5 6 6 7 8 8 9 9 8 8 8 5 6 8 8 12 12 12 11 11 11 10 9 8 8
2 2 3 3 2 4 4 3 4 5 5 5 5 6 9 10 9 8 6 6 6 5 5 4 4 5 5 5 5 4 5 5 5 5 5 5 6 6 7 11 11 10 10 9 9 7 5 3 4
2 2 4 3 3 3 3 3 2 4 3 3 5 8 11 10 8 7 6 5 5 5 5 4 4 4 4 3 3 3 3 3 4 5 6 4 5 4 4 4 5 6 5 6 5 4 5 5 5
4 3 2 3 3 3 2 3 2 1 2 3 5 9 11 10 8 6 6 5 4 4 4 4 4 4 4 3 3 3 2 2 3 4 5 4 3 3 4 3 4 4 3 4 4 4 6 6 6
4 4 4 4 3 3 3 2 1 2 3 4 7 9 9 8 7 6 5 5 5 4 4 4 4 3 4 4 2 3 3 3 4 3 3 4 3 3 3 3 3 4 4 4 4 4 6 6 6
4 4 4 3 3 2 2 2 2 3 4 6 8 8 8 7 7 6 5 5 5 5 4 4 4 3 3 3 3 3 3 3 3 3 3 4 3 3 3 4 4 4 3 3 3 4 4 4 5
5 5 4 3 3 2 3 3 3 4 5 6 6 7 7 6 6 6 5 5 4 4 5 5 4 3 3 3 3 2 2 2 3 3 3 4 3 3 3 3 3 3 3 3 3 5 4 4 4
5 5 4 3 3 3 6 3 3 4 6 6 6 6 7 6 6 5 5 5 4 4 5 5 4 4 4 3 3 2 2 2 2 2 2 3 3 3 3 3 3 3 3 2 3 3 3 3 3
5 4 4 4 3 3 5 3 4 5 6 6 6 6 7 7 7 6 5 5 5 5 5 6 5 4 4 3 3 2 2 2 2 2 2 2 3 3 3 2 2 3 2 2 2 2 2 3 3
4 4 3 3 3 4 5 4 3 5 7 6 6 6 7 7 7 6 6 5 5 5 5 6 5 4 3 3 2 2 2 2 2 2 2 2 2 2 2 2 2 2 2 2 2 3 2 2 2
3 3 3 2 2 4 5 5 4 4 6 6 6 6 7 7 6 5 6 6 6 6 5 5 5 5 4 3 2 2 2 2 2 1 2 2 1 2 2 1 2 1 2 2 2 2 3 2 1
5 5 3 3 2 4 5 6 4 3 5 5 6 6 6 6 6 6 6 6 6 6 6 5 6 6 5 3 2 1 2 2 2 1 2 2 1 1 1 1 1 1 1 1 1 1 1 2 0
6 5 4 3 3 5 5 6 5 4 4 4 4 4 5 6 7 7 7 7 7 6 7 5 6 7 6 5 3 2 2 2 2 2 2 2 1 1 1 1 1 1 1 1 1 1 1 0 1
5 3 4 5 6 3 4 4 4 4 5 4 4 4 5 6 7 6 7 7 7 7 6 6 6 6 7 6 5 4 3 3 3 2 2 2 2 2 1 1 1 1 1 1 1 1 1 1 1
1 2 4 5 6 5 5 6 3 4 4 3 3 3 3 5 6 6 7 7 6 6 6 6 6 6 6 6 6 5 4 3 2 2 3 3 2 2 2 1 1 2 1 2 1 1 2 2 2
4 5 5 6 6 7 4 6 3 3 3 3 2 2 2 3 4 5 5 5 6 6 6 6 6 6 6 6 6 6 5 4 3 4 3 3 2 2 2 2 2 2 2 2 2 2 2 2 2
6 6 5 5 5 3 3 6 3 1 1 2 1 2 2 2 3 4 4 5 5 6 6 6 7 6 6 7 7 6 5 5 5 4 4 3 2 2 3 2 2 2 2 2 2 2 3 3 3
6 7 5 3 3 2 4 6 1 1 2 2 2 2 3 2 2 2 3 4 5 5 6 6 7 7 7 7 7 6 6 4 3 4 3 3 2 2 3 3 3 3 3 2 2 2 2 2 3
6 6 4 5 4 5 4 4 3 3 3 3 3 3 3 2 2 2 2 3 4 5 5 6 7 7 7 7 6 6 5 5 4 4 4 3 2 2 3 3 3 3 3 3 3 2 3 3 3
3 3 4 6 5 6 5 6 4 4 4 3 3 3 2 2 2 2 2 2 3 3 4 5 5 6 6 6 5 4 5 5 4 4 4 4 3 3 3 4 3 3 3 4 3 3 3 3 2
4 5 5 5 5 5 5 2 1 1 2 3 3 2 2 2 2 2 1 1 2 3 3 4 4 4 4 5 5 5 5 4 4 4 4 4 3 3 4 4 4 4 4 4 4 4 4 4 4
4 5 6 6 5 6 6 1 4 1 1 2 1 1 2 1 1 2 1 2 2 2 2 3 3 3 3 4 4 5 4 4 4 4 4 4 4 4 4 4 4 4 4 4 5 5 4 5 4
Wind_Direction
195 198 231 242 220 126 92 89 96 107 92 73 64 58 61 43 25 62 81 87 77 90 79 84 50 51 54 56 65 75 76 78 77 76 75 75 80 83 84 87 90 93 95 95 95 93 93 92 90
198 215 237 248 223 129 103 107 104 87 97 108 89 79 78 73 56 85 102 91 98 87 79 70 56 59 63 62 68 77 81 78 75 73 68 73 81 81 80 82 86 88 90 90 92 93 94 92 89
175 245 267 242 115 104 113 115 107 101 108 114 99 69 59 72 84 92 97 116 104 87 81 75 62 67 68 68 75 80 81 80 75 72 68 73 78 78 78 79 82 84 85 86 88 90 90 91 90
215 211 217 138 107 84 100 116 121 127 116 97 112 100 85 65 73 93 112 117 102 91 83 79 62 68 70 73 77 80 79 79 77 74 74 74 76 77 78 79 80 80 82 80 81 86 87 89 90
233 227 158 132 115 106 101 116 138 131 117 108 114 104 97 84 88 105 115 112 102 94 89 87 72 71 70 75 79 78 77 78 79 75 75 75 77 79 79 78 78 78 77 77 76 80 83 83 84
201 211 168 143 130 125 120 133 150 124 114 116 122 113 99 108 109 109 113 109 101 96 93 96 89 76 73 73 76 76 77 79 78 76 73 74 75 76 79 79 77 76 74 73 72 74 77 78 79
211 160 141 139 142 142 126 137 146 126 121 111 120 112 118 128 115 121 117 111 103 97 96 94 97 99 90 78 73 72 72 75 77 76 74 73 72 74 77 80 78 78 77 76 74 72 71 73 75
259 169 149 151 154 132 125 136 109 118 105 101 123 121 132 139 135 130 121 116 111 103 98 97 97 90 92 94 81 75 72 71 73 74 72 74 81 82 79 82 77 76 74 72 72 72 71 73 71
231 196 155 148 154 129 140 147 114 109 120 117 84 61 107 134 141 136 131 126 118 108 103 102 101 97 93 89 92 90 86 80 86 86 84 87 83 82 84 72 73 71 70 70 70 70 72 79 79
213 177 128 103 110 120 132 138 139 152 138 129 113 100 122 140 148 143 140 133 132 124 116 109 105 102 100 95 95 87 87 88 80 78 82 77 76 71 74 83 75 75 75 78 74 75 84 68 83
161 133 125 121 107 120 128 121 150 171 151 150 144 139 143 150 152 150 145 134 123 122 120 117 117 109 104 101 94 82 76 79 81 79 82 82 82 86 79 83 88 82 79 74 83 87 68 67 66
136 112 127 124 123 135 129 136 149 171 87 98 129 141 149 157 158 156 150 140 135 129 128 123 121 114 106 100 95 97 92 81 79 80 83 84 78 72 75 73 69 67 66 62 58 58 69 67 67
144 136 124 124 126 121 117 137 138 138 93 113 130 144 154 159 158 153 148 147 149 145 143 131 131 122 111 100 100 96 90 87 90 82 87 86 82 75 77 79 73 67 66 68 60 61 65 63 60
134 140 147 153 153 161 151 154 188 145 133 133 144 154 161 162 164 158 158 160 158 157 152 141 145 134 125 122 121 102 96 99 91 88 89 92 84 77 73 76 73 66 63 64 69 74 68 63 60
155 155 158 173 190 185 201 198 198 147 155 149 155 160 164 169 173 175 169 172 171 161 157 146 149 146 139 128 116 107 102 100 94 90 92 94 88 85 81 75 76 75 75 75 72 77 73 72 73
183 190 187 165 202 200 228 208 160 166 178 169 168 169 174 180 187 185 180 183 178 168 160 151 156 154 142 136 138 123 110 99 95 91 86 95 97 84 79 77 77 75 74 73 79 80 81 76 70
200 201 194 170 192 206 230 224 164 182 195 190 185 185 185 186 193 193 192 191 187 181 169 160 160 153 145 145 145 129 118 109 100 94 87 92 96 94 87 74 76 79 79 76 78 73 75 80 74
187 198 198 197 169 210 224 232 194 191 206 206 199 198 196 196 196 196 195 193 191 187 177 164 154 151 145 149 153 136 129 131 117 106 101 91 92 93 91 97 90 85 84 77 79 88 81 80 92
209 211 206 190 173 223 230 241 240 204 207 213 208 206 206 203 194 191 189 190 192 188 183 167 163 156 147 149 160 160 154 152 146 140 126 120 116 107 104 108 99 90 88 83 89 93 107 98 101
208 213 204 176 184 233 239 246 246 218 218 222 219 209 209 202 192 182 184 185 191 183 179 174 174 167 163 156 161 168 153 169 156 165 160 155 138 127 121 158 141 126 105 110 98 88 94 101 95
208 225 225 227 206 211 247 233 209 201 208 214 223 221 218 212 205 191 190 191 191 188 184 183 179 171 169 162 159 153 147 168 169 178 181 183 187 180 192 220 190 176 194 175 175 166 199 180 149
216 213 229 224 233 218 249 256 197 198 200 202 207 212 215 213 211 200 195 196 194 190 186 187 185 179 176 172 178 181 191 193 197 193 185 190 199 209 217 214 229 219 225 211 224 221 240 249 212
213 192 218 229 244 243 225 254 206 190 213 204 189 203 214 210 207 205 201 198 194 188 186 188 186 183 180 183 184 198 208 207 196 198 200 204 195 206 206 214 225 231 235 238 241 242 247 254 259
177 190 194 217 239 239 223 247 235 187 239 234 194 177 184 192 192 199 196 193 190 184 185 188 191 187 184 190 194 202 208 211 205 208 210 210 196 200 207 217 220 229 235 236 238 238 241 256 263
209 224 220 212 217 230 193 239 251 57 262 240 219 168 145 153 171 177 180 187 187 184 186 192 193 193 191 197 203 206 211 214 217 218 217 221 212 207 207 218 223 221 228 233 235 239 242 241 247
217 235 255 264 252 227 199 235 159 101 141 173 175 151 135 127 131 151 167 182 184 187 192 197 197 199 198 204 208 209 211 218 224 226 229 231 232 223 213 218 220 219 221 224 229 246 239 246 245
215 219 268 278 269 254 219 216 186 166 171 170 160 145 138 132 121 123 152 174 182 187 190 198 199 199 201 207 207 209 216 217 221 226 228 234 237 226 216 213 213 214 218 221 218 236 234 239 246
274 212 221 237 250 248 234 231 216 181 187 174 169 161 142 137 138 128 139 168 179 186 190 192 200 202 201 207 208 208 216 218 220 221 223 228 225 211 213 214 210 211 215 218 218 234 235 231 232
187 201 231 242 256 267 261 212 93 210 196 183 169 173 169 153 145 138 138 153 163 175 182 189 196 196 194 201 208 210 213 215 213 219 223 228 227 220 220 222 221 218 219 221 218 228 224 233 230
245 229 227 244 232 245 272 260 103 185 197 203 210 190 170 153 134 129 133 131 132 155 181 191 195 200 200 205 208 214 212 207 211 217 221 225 225 225 228 227 226 228 229 230 228 229 229 234 238